Tillbaka till svenska Fidonet
English   Information   Debug  
FILM   0/18
FNEWS_PUBLISH   4983
FN_SYSOP   42232
FN_SYSOP_OLD1   71952
FTP_FIDO   0/2
FTSC_PUBLIC   0/13976
FUNNY   0/4886
GENEALOGY.EUR   0/71
GET_INFO   105
GOLDED   0/408
HAM   3481/16714
HOLYSMOKE   0/6791
HOT_SITES   0/1
HTMLEDIT   0/71
HUB203   466
HUB_100   264
HUB_400   39
HUMOR   0/29
IC   0/2851
INTERNET   0/424
INTERUSER   0/3
IP_CONNECT   719
JAMNNTPD   0/233
JAMTLAND   0/47
KATTY_KORNER   0/41
LAN   0/16
LINUX-USER   0/19
LINUXHELP   0/1155
LINUX   0/22386
LINUX_BBS   0/957
mail   18.68
mail_fore_ok   249
MENSA   0/341
MODERATOR   0/102
MONTE   0/992
MOSCOW_OKLAHOMA   0/1245
MUFFIN   0/783
MUSIC   0/321
N203_STAT   938
N203_SYSCHAT   313
NET203   321
NET204   69
NET_DEV   0/10
NORD.ADMIN   0/101
NORD.CHAT   0/2572
NORD.FIDONET   189
NORD.HARDWARE   0/28
NORD.KULTUR   0/114
NORD.PROG   0/32
NORD.SOFTWARE   0/88
NORD.TEKNIK   0/58
NORD   0/453
OCCULT_CHAT   0/93
OS2BBS   0/787
OS2DOSBBS   0/580
OS2HW   0/42
OS2INET   0/37
OS2LAN   0/134
OS2PROG   0/36
OS2REXX   0/113
OS2USER-L   207
OS2   0/4831
OSDEBATE   0/18996
PASCAL   0/490
PERL   0/457
PHP   0/45
POINTS   0/405
POLITICS   0/29554
POL_INC   0/14731
PSION   103
R20_ADMIN   1133
R20_AMATORRADIO   0/2
R20_BEST_OF_FIDONET   16
R20_CHAT   0/897
R20_DEPP   0/3
R20_DEV   400
R20_ECHO2   1889
R20_ECHOPRES   0/35
R20_ESTAT   0/719
R20_FIDONETPROG...
...RAM.MYPOINT
  0/2
R20_FIDONETPROGRAM   0/22
R20_FIDONET   0/248
R20_FILEFIND   0/24
R20_FILEFOUND   0/22
R20_HIFI   0/3
R20_INFO2   3782
R20_INTERNET   0/12940
R20_INTRESSE   0/60
R20_INTR_KOM   0/99
R20_KANDIDAT.CHAT   42
R20_KANDIDAT   28
R20_KOM_DEV   112
R20_KONTROLL   0/13360
R20_KORSET   0/18
R20_LOKALTRAFIK   0/24
R20_MODERATOR   0/1852
R20_NC   76
R20_NET200   245
R20_NETWORK.OTH...
...ERNETS
  0/13
R20_OPERATIVSYS...
...TEM.LINUX
  0/44
R20_PROGRAMVAROR   0/1
R20_REC2NEC   534
R20_SFOSM   0/341
R20_SF   0/108
R20_SPRAK.ENGLISH   0/1
R20_SQUISH   107
R20_TEST   2
R20_WORST_OF_FIDONET   20
RAR   0/9
RA_MULTI   106
RA_UTIL   0/162
REGCON.EUR   0/2069
REGCON   0/13
SCIENCE   0/1206
SF   0/239
SHAREWARE_SUPPORT   0/5146
SHAREWRE   0/14
SIMPSONS   0/169
STATS_OLD1   0/2539.065
STATS_OLD2   0/2530
STATS_OLD3   0/2395.095
STATS_OLD4   0/1692.25
SURVIVOR   0/495
SYSOPS_CORNER   0/3
SYSOP   0/84
TAGLINES   0/112
TEAMOS2   0/4530
TECH   0/2617
TEST.444   0/105
TRAPDOOR   0/19
TREK   0/755
TUB   0/290
UFO   0/40
UNIX   0/1316
USA_EURLINK   0/102
USR_MODEMS   0/1
VATICAN   0/2740
VIETNAM_VETS   0/14
VIRUS   0/378
VIRUS_INFO   0/201
VISUAL_BASIC   0/473
WHITEHOUSE   0/5187
WIN2000   0/101
WIN32   0/30
WIN95   4257/4291
WIN95_OLD1   0/70272
WINDOWS   0/1517
WWB_SYSOP   0/419
WWB_TECH   0/810
ZCC-PUBLIC   0/1
ZEC   4

 
4DOS   0/134
ABORTION   0/7
ALASKA_CHAT   0/506
ALLFIX_FILE   0/1313
ALLFIX_FILE_OLD1   0/7997
ALT_DOS   0/152
AMATEUR_RADIO   0/1039
AMIGASALE   0/14
AMIGA   0/331
AMIGA_INT   0/1
AMIGA_PROG   0/20
AMIGA_SYSOP   0/26
ANIME   0/15
ARGUS   0/924
ASCII_ART   0/340
ASIAN_LINK   0/651
ASTRONOMY   0/417
AUDIO   0/92
AUTOMOBILE_RACING   0/105
BABYLON5   0/17862
BAG   135
BATPOWER   0/361
BBBS.ENGLISH   0/382
BBSLAW   0/109
BBS_ADS   0/5290
BBS_INTERNET   0/507
BIBLE   0/3563
BINKD   0/1119
BINKLEY   0/215
BLUEWAVE   0/2173
CABLE_MODEMS   0/25
CBM   0/46
CDRECORD   0/66
CDROM   0/20
CLASSIC_COMPUTER   0/378
COMICS   0/15
CONSPRCY   0/899
COOKING   42003
COOKING_OLD1   0/24719
COOKING_OLD2   0/40862
COOKING_OLD3   0/37489
COOKING_OLD4   0/35496
COOKING_OLD5   9370
C_ECHO   0/189
C_PLUSPLUS   0/31
DIRTY_DOZEN   0/201
DOORGAMES   0/2333
DOS_INTERNET   0/196
duplikat   6102
ECHOLIST   0/18295
EC_SUPPORT   0/318
ELECTRONICS   0/359
ELEKTRONIK.GER   1534
ENET.LINGUISTIC   0/13
ENET.POLITICS   0/4
ENET.SOFT   0/11701
ENET.SYSOP   34334
ENET.TALKS   0/32
ENGLISH_TUTOR   0/2000
EVOLUTION   0/1335
FDECHO   0/217
FDN_ANNOUNCE   0/7068
FIDONEWS   25122
FIDONEWS_OLD1   0/49742
FIDONEWS_OLD2   0/35949
FIDONEWS_OLD3   0/30874
FIDONEWS_OLD4   0/37224
FIDO_SYSOP   12973
FIDO_UTIL   0/180
FILEFIND   0/209
FILEGATE   0/212
Möte HAM, 16714 texter
 lista första sista föregående nästa
Text 4279, 908 rader
Skriven 2011-01-27 22:30:45 av Amsat List (1:323/120.0)
Ärende: [keps]  orb11027.amsa
=============================
[keps]  orb11027.amsa

Return-Path: <keps-bounces@amsat.org>
X-Rcpt: craig.healy@chowda.com
X-UIDL: 1296184896.10447

SB KEPS @ AMSAT  $ORB11027.O
Orbital Elements  11027.OSCAR

HR AMSAT ORBITAL ELEMENTS FOR OSCAR SATELLITES
FROM WA5QGD FORT WORTH,TX January 27, 2011
Send Subscribe/unsubscribe to KEPS at http://www.amsat.org/mailman/listinfo/kep
BID: ORB11027.O
TO ALL RADIO AMATEURS BT

Satellite: AO-07
Catalog number: 07530
Epoch time:      11027.53783281
Element set:     989
Inclination:      101.3953 deg
RA of node:       039.6250 deg
Eccentricity:    0.0011763
Arg of perigee:   194.6844 deg
Mean anomaly:     165.3891 deg
Mean motion:   12.53581082 rev/day
Decay rate:       -2.7e-07 rev/day^2
Epoch rev:           65656
Checksum:              314

Satellite: FO-29
Catalog number: 24278
Epoch time:      11026.95552069
Element set:    0504
Inclination:      098.5231 deg
RA of node:       190.2662 deg
Eccentricity:    0.0349760
Arg of perigee:   263.4161 deg
Mean anomaly:     092.7057 deg
Mean motion:   13.52956830 rev/day
Decay rate:        3.3e-07 rev/day^2
Epoch rev:           71336
Checksum:              309

Satellite: SO-33
Catalog number: 25509
Epoch time:      11027.12669533
Element set:     891
Inclination:      031.4325 deg
RA of node:       322.1014 deg
Eccentricity:    0.0353335
Arg of perigee:   088.0924 deg
Mean anomaly:     276.0116 deg
Mean motion:   14.28361290 rev/day
Decay rate:        5.1e-07 rev/day^2
Epoch rev:           64009
Checksum:              270

Satellite: RS-22
Catalog number: 27939
Epoch time:      11027.58963467
Element set:     938
Inclination:      097.8629 deg
RA of node:       248.1599 deg
Eccentricity:    0.0014654
Arg of perigee:   070.8343 deg
Mean anomaly:     289.4447 deg
Mean motion:   14.63503873 rev/day
Decay rate:        9.9e-07 rev/day^2
Epoch rev:           39177
Checksum:              371

Satellite: VO-52
Catalog number: 28650
Epoch time:      11026.30604544
Element set:    0703
Inclination:      097.6618 deg
RA of node:       075.6598 deg
Eccentricity:    0.0025812
Arg of perigee:   266.4615 deg
Mean anomaly:     093.3675 deg
Mean motion:   14.81897989 rev/day
Decay rate:       4.68e-06 rev/day^2
Epoch rev:           30973
Checksum:              346

Satellite: SO-67
Catalog number: 35870
Epoch time:      11027.58223231
Element set:     508
Inclination:      097.3020 deg
RA of node:       075.4107 deg
Eccentricity:    0.0004235
Arg of perigee:   049.6528 deg
Mean anomaly:     106.0758 deg
Mean motion:   15.21306913 rev/day
Decay rate:       6.09e-06 rev/day^2
Epoch rev:            7556
Checksum:              285

Satellite: HO-68
Catalog number: 36122
Epoch time:      11027.62398943
Element set:      59
Inclination:      100.4379 deg
RA of node:       090.4596 deg
Eccentricity:    0.0007502
Arg of perigee:   183.7855 deg
Mean anomaly:     176.3201 deg
Mean motion:   13.16283859 rev/day
Decay rate:       -4.5e-07 rev/day^2
Epoch rev:            5374
Checksum:              311

/EX
SB KEPS @ AMSAT  $ORB11027.D
Orbital Elements  11027.MICROS

HR AMSAT ORBITAL ELEMENTS FOR THE MICROSATS
FROM WA5QGD FORT WORTH,TX January 27, 2011
Send Subscribe/unsubscribe to KEPS at http://www.amsat.org/mailman/listinfo/kep
BID: ORB11027.D
TO ALL RADIO AMATEURS BT

Satellite: UO-11
Catalog number: 14781
Epoch time:      11027.70928701
Element set:     455
Inclination:      098.0249 deg
RA of node:       084.7312 deg
Eccentricity:    0.0008175
Arg of perigee:   229.0764 deg
Mean anomaly:     130.9770 deg
Mean motion:   14.79881628 rev/day
Decay rate:      -1.77e-06 rev/day^2
Epoch rev:           44501
Checksum:              311

Satellite: AO-16
Catalog number: 20439
Epoch time:      11026.94017810
Element set:    0104
Inclination:      098.3656 deg
RA of node:       341.4190 deg
Eccentricity:    0.0010281
Arg of perigee:   219.3975 deg
Mean anomaly:     140.6466 deg
Mean motion:   14.31892749 rev/day
Decay rate:        1.0e-07 rev/day^2
Epoch rev:           09740
Checksum:              284

Satellite: LO-19
Catalog number: 20442
Epoch time:      11026.90220044
Element set:    0012
Inclination:      098.3279 deg
RA of node:       346.2863 deg
Eccentricity:    0.0011352
Arg of perigee:   213.0660 deg
Mean anomaly:     146.9808 deg
Mean motion:   14.32120699 rev/day
Decay rate:       -1.6e-07 rev/day^2
Epoch rev:           09757
Checksum:              276

Satellite: AO-27
Catalog number: 22825
Epoch time:      11026.88528720
Element set:    0735
Inclination:      098.5147 deg
RA of node:       334.3736 deg
Eccentricity:    0.0008247
Arg of perigee:   336.9735 deg
Mean anomaly:     023.1107 deg
Mean motion:   14.29324620 rev/day
Decay rate:        8.5e-07 rev/day^2
Epoch rev:           90400
Checksum:              297

Satellite: IO-26
Catalog number: 22826
Epoch time:      11026.91047572
Element set:    0473
Inclination:      098.5094 deg
RA of node:       334.9206 deg
Eccentricity:    0.0008588
Arg of perigee:   331.3272 deg
Mean anomaly:     028.7448 deg
Mean motion:   14.29583570 rev/day
Decay rate:        1.8e-07 rev/day^2
Epoch rev:           90412
Checksum:              312

Satellite: GO-32
Catalog number: 25397
Epoch time:      11026.74121000
Element set:    0393
Inclination:      098.3198 deg
RA of node:       026.9268 deg
Eccentricity:    0.0001120
Arg of perigee:   016.9470 deg
Mean anomaly:     343.1734 deg
Mean motion:   14.23194789 rev/day
Decay rate:       -6.0e-08 rev/day^2
Epoch rev:           65184
Checksum:              289

